Regional Weather Roundup
Issued by NWS

Home | Current Version | Previous Version | Text Only | Print | Product List | Glossary Off
Versions: 1 2 3 4 5 6 7 8 9 10 11 12 13 14 15 16 17 18 19 20 21 22 23 24 25 26 27 28 29 30 31 32 33 34 35 36 37 38 39 40 41 42 43 44 45 46 47 48 49 50

000
ASUS45 KCYS 191910
RWRWY

WYOMING REGIONAL WEATHER ROUNDUP
NATIONAL WEATHER SERVICE CHEYENNE WY
100 PM MDT FRI SEP 19 2014

NOTE:  "FAIR" INDICATES FEW OR NO CLOUDS BELOW 12,000 FEET
WITH NO SIGNIFICANT WEATHER AND/OR OBSTRUCTIONS TO VISIBILITY.

WYZ001-192000-
YELLOWSTONE NATIONAL PARK

CITY           SKY/WX    TMP DP  RH WIND       PRES   REMARKS
LK YELLOWSTONE   N/A     60  40  47 W10G16    30.23R
W YELLOWSTONE  NOT AVBL

$$
WYZ002>013-054>058-071-098>099-192000-
NORTHERN WYOMING

CITY           SKY/WX    TMP DP  RH WIND       PRES   REMARKS
JACKSON        SUNNY     66  64  94 S12         N/A
CODY             N/A    N/A N/A N/A MISG        N/A
GREYBULL       SUNNY     77  51  40 SE7       29.93F
WORLAND        SUNNY     77  50  38 NE6       29.95S
SHERIDAN       MOSUNNY   76  51  41 NW12      29.93S
BUFFALO        SUNNY     74  46  36 N10       29.98S
GILLETTE       MOSUNNY   75  50  41 N15G22    29.93S
HULETT         FAIR      77  45  31 MISG      29.93
NEWCASTLE      FAIR      79  43  27 N7        29.91

$$
WYZ014>020-022>026-101>103-192000-
CENTRAL WYOMING

CITY           SKY/WX    TMP DP  RH WIND       PRES   REMARKS
BIG PINEY      SUNNY     71  32  23 NW10G21   30.20R
PINEDALE       CLEAR     68  36  30 NW13G21   30.20S
DUBOIS         FAIR      66  32  28 NW10G26   30.15R
LANDER         SUNNY     79  41  25 VRB6      30.01F
RIVERTON       SUNNY     78  35  21 NW13G18   30.03S
CASPER         SUNNY     81  38  21 W17G23    30.00F
DOUGLAS        MOSUNNY   82  45  27 W15       29.98S

$$
WYZ021-027>030-104>119-192000-
SOUTHERN WYOMING

CITY           SKY/WX    TMP DP  RH WIND       PRES   REMARKS
EVANSTON       SUNNY     68  42  38 CALM      30.22F
KEMMERER       CLEAR     70  34  26 NW13G23   30.23S
FORT BRIDGER   FAIR      72  43  35 NW12      30.24S
ROCK SPRINGS   SUNNY     72  43  35 W13G20    30.18F
DIXON          FAIR      76  43  30 SW6       30.17S
RAWLINS        MOSUNNY   74  46  36 SW22G29   30.15S
SARATOGA       FAIR      77  41  27 SW9       30.17S
LARAMIE        PTSUNNY   77  41  27 NW17G30   30.13F
CHEYENNE       MOSUNNY   85  38  18 W16       30.05S
TORRINGTON     MOSUNNY   82  50  32 VRB3      29.91F
PINE BLUFFS    FAIR      86  41  20 NW3G17    29.98S

$$



USA.gov is the U.S. government's official web portal to all federal, state and local government web resources and services.